Year,Month,Day,Hour,Minute,Value (Times are PST for windspeed in km/hr)
2009,06,03,07,30,0.00
2009,06,03,07,31,0.00
2009,06,03,07,32,0.00
2009,06,03,07,33,0.00
2009,06,03,07,34,0.00
2009,06,03,07,35,0.00
2009,06,03,07,36,0.00
2009,06,03,07,37,0.00
2009,06,03,07,38,0.00
2009,06,03,07,39,0.00
2009,06,03,07,40,0.00
2009,06,03,07,41,0.00
2009,06,03,07,42,0.00
2009,06,03,07,43,0.00
2009,06,03,07,44,0.00
2009,06,03,07,45,0.00
2009,06,03,07,46,0.00
2009,06,03,07,47,0.00
2009,06,03,07,48,0.00
2009,06,03,07,49,0.00
2009,06,03,07,50,0.00
2009,06,03,07,51,0.00
2009,06,03,07,52,0.00
2009,06,03,07,53,0.00
2009,06,03,07,54,0.00
2009,06,03,07,55,0.00
2009,06,03,07,56,0.00
2009,06,03,07,57,0.00
2009,06,03,07,58,0.00
2009,06,03,07,59,0.00
2009,06,03,08,00,0.00
2009,06,03,08,01,0.00
2009,06,03,08,02,0.00
2009,06,03,08,03,0.00
2009,06,03,08,04,0.00
2009,06,03,08,05,0.00
2009,06,03,08,06,0.00
2009,06,03,08,07,0.00
2009,06,03,08,08,0.00
2009,06,03,08,09,0.00
2009,06,03,08,10,0.00
2009,06,03,08,11,0.00
2009,06,03,08,12,0.00
2009,06,03,08,13,0.00
2009,06,03,08,14,0.00
2009,06,03,08,15,0.00
2009,06,03,08,16,0.00
2009,06,03,08,17,0.00
2009,06,03,08,18,0.00
2009,06,03,08,19,0.00
2009,06,03,08,20,0.00
2009,06,03,08,21,0.00
2009,06,03,08,22,0.00
2009,06,03,08,23,0.00
2009,06,03,08,24,0.00
2009,06,03,08,25,0.00
2009,06,03,08,26,0.00
2009,06,03,08,27,0.00
2009,06,03,08,28,0.00
2009,06,03,08,29,0.00
2009,06,03,08,30,0.00
2009,06,03,08,31,0.00
2009,06,03,08,32,0.00
2009,06,03,08,33,0.00
2009,06,03,08,34,0.00
2009,06,03,08,35,0.00
2009,06,03,08,36,0.00
2009,06,03,08,37,0.00
2009,06,03,08,38,0.00
2009,06,03,08,39,0.00
2009,06,03,08,40,0.00
2009,06,03,08,41,0.00
2009,06,03,08,42,0.00
2009,06,03,08,43,0.00
2009,06,03,08,44,0.00
2009,06,03,08,45,0.00
2009,06,03,08,46,0.00
2009,06,03,08,47,0.00
2009,06,03,08,48,0.00
2009,06,03,08,49,0.00
2009,06,03,08,50,0.00
2009,06,03,08,51,0.00
2009,06,03,08,52,0.00
2009,06,03,08,53,0.00
2009,06,03,08,54,0.00
2009,06,03,08,55,0.00
2009,06,03,08,56,0.00
2009,06,03,08,57,1.80
2009,06,03,08,58,0.00
2009,06,03,08,59,0.00
2009,06,03,09,00,0.00
2009,06,03,09,01,0.00
2009,06,03,09,02,0.00
2009,06,03,09,03,0.10
2009,06,03,09,04,0.00
2009,06,03,09,05,0.00
2009,06,03,09,06,0.00
2009,06,03,09,07,0.60
2009,06,03,09,08,0.20
2009,06,03,09,09,0.00
2009,06,03,09,10,0.10
2009,06,03,09,11,2.20
2009,06,03,09,12,0.20
2009,06,03,09,13,0.00
2009,06,03,09,14,1.20
2009,06,03,09,15,0.00
2009,06,03,09,16,0.10
2009,06,03,09,17,0.00
2009,06,03,09,18,0.00
2009,06,03,09,19,0.00
2009,06,03,09,20,0.00
2009,06,03,09,21,0.00
2009,06,03,09,22,0.00
2009,06,03,09,23,0.00
2009,06,03,09,24,0.00
2009,06,03,09,25,0.30
2009,06,03,09,26,1.70
2009,06,03,09,27,0.20
2009,06,03,09,28,0.00
2009,06,03,09,29,0.40
2009,06,03,09,30,0.50
2009,06,03,09,31,0.20
2009,06,03,09,32,1.60
2009,06,03,09,33,0.00
2009,06,03,09,34,0.00
2009,06,03,09,35,0.20
2009,06,03,09,36,0.10
2009,06,03,09,37,0.40
2009,06,03,09,38,0.50
2009,06,03,09,39,0.60
2009,06,03,09,40,0.00
2009,06,03,09,41,0.70
2009,06,03,09,42,0.50
2009,06,03,09,43,0.00
2009,06,03,09,44,0.10
2009,06,03,09,45,0.00
2009,06,03,09,46,0.20
2009,06,03,09,47,2.20
2009,06,03,09,48,0.20
2009,06,03,09,49,0.10
2009,06,03,09,50,0.30
2009,06,03,09,51,0.30
2009,06,03,09,52,0.20
2009,06,03,09,53,0.00
2009,06,03,09,54,0.00
2009,06,03,09,55,0.00
2009,06,03,09,56,1.50
2009,06,03,09,57,1.00
2009,06,03,09,58,1.30
2009,06,03,09,59,0.40
2009,06,03,10,00,0.40
2009,06,03,10,01,0.10
2009,06,03,10,02,1.00
2009,06,03,10,03,1.50
2009,06,03,10,04,0.70
2009,06,03,10,05,1.90
2009,06,03,10,06,0.50
2009,06,03,10,07,0.00
2009,06,03,10,08,0.00
2009,06,03,10,09,1.20
2009,06,03,10,10,0.10
2009,06,03,10,11,0.00
2009,06,03,10,12,0.60
2009,06,03,10,13,0.00
2009,06,03,10,14,3.00
2009,06,03,10,15,0.10
2009,06,03,10,16,0.00
2009,06,03,10,17,0.70
2009,06,03,10,18,4.10
2009,06,03,10,19,2.50
2009,06,03,10,20,1.20
2009,06,03,10,21,0.90
2009,06,03,10,22,4.40
2009,06,03,10,23,1.40
2009,06,03,10,24,1.40
2009,06,03,10,25,0.40
2009,06,03,10,26,0.60
2009,06,03,10,27,1.20
2009,06,03,10,28,0.40
2009,06,03,10,29,1.60
2009,06,03,10,30,0.30
2009,06,03,10,31,1.10
2009,06,03,10,32,0.00
2009,06,03,10,33,0.60
2009,06,03,10,34,2.20
2009,06,03,10,35,1.10
2009,06,03,10,36,2.80
2009,06,03,10,37,0.50
2009,06,03,10,38,2.20
2009,06,03,10,39,1.50
2009,06,03,10,40,2.90
2009,06,03,10,41,2.00
2009,06,03,10,42,1.60
2009,06,03,10,43,0.10
2009,06,03,10,44,0.20
2009,06,03,10,45,1.80
2009,06,03,10,46,4.70
2009,06,03,10,47,8.30
2009,06,03,10,48,4.30
2009,06,03,10,49,3.30
2009,06,03,10,50,4.30
2009,06,03,10,51,1.10
2009,06,03,10,52,0.80
2009,06,03,10,53,1.60
2009,06,03,10,54,1.00
2009,06,03,10,55,0.50
2009,06,03,10,56,1.20
2009,06,03,10,57,0.80
2009,06,03,10,58,0.50
2009,06,03,10,59,0.70
2009,06,03,11,00,1.80
2009,06,03,11,01,3.60
2009,06,03,11,02,8.60
2009,06,03,11,03,9.30
2009,06,03,11,04,0.90
2009,06,03,11,05,3.90
2009,06,03,11,06,1.90
2009,06,03,11,07,0.60
2009,06,03,11,08,0.90
2009,06,03,11,09,3.80
2009,06,03,11,10,2.10
2009,06,03,11,11,0.90
2009,06,03,11,12,6.80
2009,06,03,11,13,11.70
2009,06,03,11,14,12.50
2009,06,03,11,15,15.50
2009,06,03,11,16,5.70
2009,06,03,11,17,7.70
2009,06,03,11,18,5.10
2009,06,03,11,19,5.70
2009,06,03,11,20,0.80
2009,06,03,11,21,1.00
2009,06,03,11,22,4.60
2009,06,03,11,23,5.10
2009,06,03,11,24,0.50
2009,06,03,11,25,1.00
2009,06,03,11,26,8.80
2009,06,03,11,27,5.80
2009,06,03,11,28,3.80
2009,06,03,11,29,4.70
2009,06,03,11,30,1.60
2009,06,03,11,31,0.60
2009,06,03,11,32,4.10
2009,06,03,11,33,4.70
2009,06,03,11,34,1.60
2009,06,03,11,35,0.20
2009,06,03,11,36,2.40
2009,06,03,11,37,4.60
2009,06,03,11,38,4.30
2009,06,03,11,39,9.40
2009,06,03,11,40,10.40
2009,06,03,11,41,6.80
2009,06,03,11,42,4.90
2009,06,03,11,43,8.50
2009,06,03,11,44,8.20
2009,06,03,11,45,7.60
2009,06,03,11,46,9.90
2009,06,03,11,47,14.60
2009,06,03,11,48,8.90
2009,06,03,11,49,4.60
2009,06,03,11,50,8.70
2009,06,03,11,51,15.50
2009,06,03,11,52,9.80
2009,06,03,11,53,7.90
2009,06,03,11,54,6.40
2009,06,03,11,55,11.90
2009,06,03,11,56,10.10
2009,06,03,11,57,16.40
2009,06,03,11,58,16.90
2009,06,03,11,59,7.70
2009,06,03,12,00,7.70
2009,06,03,12,01,8.60
2009,06,03,12,02,9.60
2009,06,03,12,03,8.60
2009,06,03,12,04,9.70
2009,06,03,12,05,13.20
2009,06,03,12,06,5.10
2009,06,03,12,07,5.90
2009,06,03,12,08,10.40
2009,06,03,12,09,4.40
2009,06,03,12,10,7.70
2009,06,03,12,11,7.00
2009,06,03,12,12,6.20
2009,06,03,12,13,5.90
2009,06,03,12,14,2.30
2009,06,03,12,15,2.60
2009,06,03,12,16,17.70
2009,06,03,12,17,3.30
2009,06,03,12,18,1.50
2009,06,03,12,19,0.50
2009,06,03,12,20,13.50
2009,06,03,12,21,19.10
2009,06,03,12,22,15.80
2009,06,03,12,23,7.90
2009,06,03,12,24,5.80
2009,06,03,12,25,16.50
2009,06,03,12,26,6.40
2009,06,03,12,27,14.20
2009,06,03,12,28,9.70
2009,06,03,12,29,2.30
2009,06,03,12,30,1.50
2009,06,03,12,31,9.70
2009,06,03,12,32,8.60
2009,06,03,12,33,8.90
2009,06,03,12,34,12.60
2009,06,03,12,35,4.10
2009,06,03,12,36,2.70
2009,06,03,12,37,12.10
2009,06,03,12,38,10.80
2009,06,03,12,39,6.40
2009,06,03,12,40,9.40
2009,06,03,12,41,2.70
2009,06,03,12,42,8.80
2009,06,03,12,43,10.20
2009,06,03,12,44,11.70
2009,06,03,12,45,9.70
2009,06,03,12,46,8.70
2009,06,03,12,47,10.90
2009,06,03,12,48,16.80
2009,06,03,12,49,11.40
2009,06,03,12,50,4.70
2009,06,03,12,51,8.70
2009,06,03,12,52,5.30
2009,06,03,12,53,6.50
2009,06,03,12,54,3.60
2009,06,03,12,55,16.40
2009,06,03,12,56,15.00
2009,06,03,12,57,9.70
2009,06,03,12,58,5.70
2009,06,03,12,59,11.90
2009,06,03,13,00,13.40
2009,06,03,13,01,9.40
2009,06,03,13,02,6.20
2009,06,03,13,03,6.70
2009,06,03,13,04,8.40
2009,06,03,13,05,6.10
2009,06,03,13,06,10.80
2009,06,03,13,07,13.20
2009,06,03,13,08,5.60
2009,06,03,13,09,7.20
2009,06,03,13,10,13.00
2009,06,03,13,11,4.80
2009,06,03,13,12,5.40
2009,06,03,13,13,4.60
2009,06,03,13,14,7.70
2009,06,03,13,15,16.30
2009,06,03,13,16,16.50
2009,06,03,13,17,13.50
2009,06,03,13,18,10.00
2009,06,03,13,19,3.70
2009,06,03,13,20,7.60
2009,06,03,13,21,9.40
2009,06,03,13,22,10.20
2009,06,03,13,23,12.90
2009,06,03,13,24,18.10
2009,06,03,13,25,18.90
2009,06,03,13,26,18.00
2009,06,03,13,27,10.50
2009,06,03,13,28,7.30
2009,06,03,13,29,10.50
2009,06,03,13,30,9.70
2009,06,03,13,31,9.10
2009,06,03,13,32,19.80
2009,06,03,13,33,11.40
2009,06,03,13,34,19.00
2009,06,03,13,35,17.50
2009,06,03,13,36,6.50
2009,06,03,13,37,10.60
2009,06,03,13,38,10.40
2009,06,03,13,39,8.80
2009,06,03,13,40,8.90
2009,06,03,13,41,14.20
2009,06,03,13,42,14.30
2009,06,03,13,43,9.10
2009,06,03,13,44,9.00
2009,06,03,13,45,8.20
2009,06,03,13,46,19.80
2009,06,03,13,47,19.10
2009,06,03,13,48,17.30
2009,06,03,13,49,12.20
2009,06,03,13,50,13.20
2009,06,03,13,51,8.80
2009,06,03,13,52,13.40
2009,06,03,13,53,12.60
2009,06,03,13,54,10.30
2009,06,03,13,55,13.50
2009,06,03,13,56,7.60
2009,06,03,13,57,7.70
2009,06,03,13,58,9.10
2009,06,03,13,59,11.20
2009,06,03,14,00,21.80
2009,06,03,14,01,24.90
2009,06,03,14,02,24.60
2009,06,03,14,03,18.10
2009,06,03,14,04,12.50
2009,06,03,14,05,10.20
2009,06,03,14,06,8.10
2009,06,03,14,07,9.90
2009,06,03,14,08,4.80
2009,06,03,14,09,2.80
2009,06,03,14,10,0.20
2009,06,03,14,11,6.30
2009,06,03,14,12,15.40
2009,06,03,14,13,10.60
2009,06,03,14,14,21.20
2009,06,03,14,15,8.40
2009,06,03,14,16,6.00
2009,06,03,14,17,5.10
2009,06,03,14,18,5.80
2009,06,03,14,19,11.40
2009,06,03,14,20,9.50
2009,06,03,14,21,10.70
2009,06,03,14,22,9.80
2009,06,03,14,23,16.50
2009,06,03,14,24,12.20
2009,06,03,14,25,9.90
2009,06,03,14,26,16.10
2009,06,03,14,27,6.00
2009,06,03,14,28,7.20
2009,06,03,14,29,6.30
2009,06,03,14,30,10.70
2009,06,03,14,31,11.80
2009,06,03,14,32,13.60
2009,06,03,14,33,15.20
2009,06,03,14,34,15.80
2009,06,03,14,35,7.10
2009,06,03,14,36,9.50
2009,06,03,14,37,4.30
2009,06,03,14,38,4.50
2009,06,03,14,39,3.40
2009,06,03,14,40,5.20
2009,06,03,14,41,4.10
2009,06,03,14,42,4.90
2009,06,03,14,43,13.20
2009,06,03,14,44,16.00
2009,06,03,14,45,15.20
2009,06,03,14,46,13.10
2009,06,03,14,47,20.40
2009,06,03,14,48,15.70
2009,06,03,14,49,13.10
2009,06,03,14,50,8.80
2009,06,03,14,51,12.30
2009,06,03,14,52,10.60
2009,06,03,14,53,7.80
2009,06,03,14,54,10.60
2009,06,03,14,55,15.80
2009,06,03,14,56,16.90
2009,06,03,14,57,16.30
2009,06,03,14,58,16.40
2009,06,03,14,59,16.90
2009,06,03,15,00,11.50
2009,06,03,15,01,6.80
2009,06,03,15,02,8.00
2009,06,03,15,03,10.80
2009,06,03,15,04,7.60
2009,06,03,15,05,9.30
2009,06,03,15,06,12.50
2009,06,03,15,07,13.10
2009,06,03,15,08,15.70
2009,06,03,15,09,11.70
2009,06,03,15,10,7.60
2009,06,03,15,11,9.70
2009,06,03,15,12,5.80
2009,06,03,15,13,8.60
2009,06,03,15,14,11.20
2009,06,03,15,15,17.50
2009,06,03,15,16,13.50
2009,06,03,15,17,19.90
2009,06,03,15,18,17.00
2009,06,03,15,19,10.40
2009,06,03,15,20,9.50
2009,06,03,15,21,18.20
2009,06,03,15,22,19.70
2009,06,03,15,23,8.80
2009,06,03,15,24,6.30
2009,06,03,15,25,13.40
2009,06,03,15,26,9.60
2009,06,03,15,27,17.20
2009,06,03,15,28,20.30
2009,06,03,15,29,13.00
2009,06,03,15,30,10.80
2009,06,03,15,31,9.70
2009,06,03,15,32,15.00
2009,06,03,15,33,15.80
2009,06,03,15,34,15.60
2009,06,03,15,35,15.40
2009,06,03,15,36,16.70
2009,06,03,15,37,9.90
2009,06,03,15,38,11.40
2009,06,03,15,39,6.20
2009,06,03,15,40,8.40
2009,06,03,15,41,16.00
2009,06,03,15,42,11.80
2009,06,03,15,43,10.60
2009,06,03,15,44,11.40
2009,06,03,15,45,11.30
2009,06,03,15,46,13.00
2009,06,03,15,47,23.40
2009,06,03,15,48,16.70
2009,06,03,15,49,8.70
2009,06,03,15,50,4.00
2009,06,03,15,51,3.70
2009,06,03,15,52,3.50
2009,06,03,15,53,12.90
2009,06,03,15,54,6.10
2009,06,03,15,55,8.80
2009,06,03,15,56,13.90
2009,06,03,15,57,11.40
2009,06,03,15,58,13.20
2009,06,03,15,59,13.10
2009,06,03,16,00,13.70
2009,06,03,16,01,11.80
2009,06,03,16,02,14.60
2009,06,03,16,03,18.00
2009,06,03,16,04,17.10
2009,06,03,16,05,18.30
2009,06,03,16,06,14.70
2009,06,03,16,07,15.70
2009,06,03,16,08,9.70
2009,06,03,16,09,17.70
2009,06,03,16,10,16.30
2009,06,03,16,11,13.90
2009,06,03,16,12,16.40
2009,06,03,16,13,15.40
2009,06,03,16,14,10.70
2009,06,03,16,15,15.20
2009,06,03,16,16,11.60
2009,06,03,16,17,10.00
2009,06,03,16,18,13.40
2009,06,03,16,19,13.10
2009,06,03,16,20,8.00
2009,06,03,16,21,15.10
2009,06,03,16,22,15.30
2009,06,03,16,23,10.10
2009,06,03,16,24,10.10
2009,06,03,16,25,24.30
2009,06,03,16,26,20.10
2009,06,03,16,27,14.70
2009,06,03,16,28,10.30
2009,06,03,16,29,6.70
2009,06,03,16,30,14.50
2009,06,03,16,31,13.80
2009,06,03,16,32,6.90
2009,06,03,16,33,6.40
2009,06,03,16,34,2.60
2009,06,03,16,35,7.00
2009,06,03,16,36,3.50
2009,06,03,16,37,11.10
2009,06,03,16,38,13.30
2009,06,03,16,39,16.50
2009,06,03,16,40,8.80
2009,06,03,16,41,8.00
2009,06,03,16,42,17.50
2009,06,03,16,43,21.40
2009,06,03,16,44,20.50
2009,06,03,16,45,19.60
2009,06,03,16,46,15.90
2009,06,03,16,47,11.80
2009,06,03,16,48,8.40
2009,06,03,16,49,16.00
2009,06,03,16,50,19.10
2009,06,03,16,51,12.30
2009,06,03,16,52,2.50
2009,06,03,16,53,0.90
2009,06,03,16,54,4.30
2009,06,03,16,55,4.70
2009,06,03,16,56,7.20
2009,06,03,16,57,5.60
2009,06,03,16,58,8.10
2009,06,03,16,59,5.70
2009,06,03,17,00,10.70
2009,06,03,17,01,8.00
2009,06,03,17,02,5.00
2009,06,03,17,03,2.90
2009,06,03,17,04,1.20
2009,06,03,17,05,6.30
2009,06,03,17,06,2.50
2009,06,03,17,07,1.90
2009,06,03,17,08,2.20
2009,06,03,17,09,1.10
2009,06,03,17,10,5.00
2009,06,03,17,11,11.50
2009,06,03,17,12,9.40
2009,06,03,17,13,16.90
2009,06,03,17,14,17.50
2009,06,03,17,15,14.90
2009,06,03,17,16,9.90
2009,06,03,17,17,9.70
2009,06,03,17,18,13.30
2009,06,03,17,19,8.80
2009,06,03,17,20,13.70
2009,06,03,17,21,10.30
2009,06,03,17,22,17.30
2009,06,03,17,23,14.80
2009,06,03,17,24,10.30
2009,06,03,17,25,7.70
2009,06,03,17,26,11.10
2009,06,03,17,27,14.10
2009,06,03,17,28,10.40
2009,06,03,17,29,7.70
2009,06,03,17,30,6.70
2009,06,03,17,31,18.80
2009,06,03,17,32,8.30
2009,06,03,17,33,18.30
2009,06,03,17,34,13.70
2009,06,03,17,35,14.40
2009,06,03,17,36,12.20
2009,06,03,17,37,11.70
2009,06,03,17,38,5.50
2009,06,03,17,39,15.60
2009,06,03,17,40,15.50
2009,06,03,17,41,10.40
2009,06,03,17,42,15.80
2009,06,03,17,43,14.40
2009,06,03,17,44,16.60
2009,06,03,17,45,8.00
2009,06,03,17,46,11.50
2009,06,03,17,47,11.70
2009,06,03,17,48,10.50
2009,06,03,17,49,7.60
2009,06,03,17,50,10.90
2009,06,03,17,51,13.10
2009,06,03,17,52,9.40
2009,06,03,17,53,9.40
2009,06,03,17,54,6.00
2009,06,03,17,55,10.90
2009,06,03,17,56,18.20
2009,06,03,17,57,7.30
2009,06,03,17,58,6.40
2009,06,03,17,59,9.70
2009,06,03,18,00,3.30
2009,06,03,18,01,4.80
2009,06,03,18,02,11.80
2009,06,03,18,03,17.10
2009,06,03,18,04,8.00
2009,06,03,18,05,8.10
2009,06,03,18,06,5.40
2009,06,03,18,07,9.70
2009,06,03,18,08,7.50
2009,06,03,18,09,5.60
2009,06,03,18,10,6.00
2009,06,03,18,11,5.80
2009,06,03,18,12,9.40
2009,06,03,18,13,9.40
2009,06,03,18,14,14.20
2009,06,03,18,15,18.60
2009,06,03,18,16,13.90
2009,06,03,18,17,10.30
2009,06,03,18,18,14.50
2009,06,03,18,19,9.70
2009,06,03,18,20,3.10
2009,06,03,18,21,5.60
2009,06,03,18,22,6.80
2009,06,03,18,23,0.20
2009,06,03,18,24,3.60
2009,06,03,18,25,3.80
2009,06,03,18,26,5.40
2009,06,03,18,27,6.80
2009,06,03,18,28,6.00
2009,06,03,18,29,12.80
2009,06,03,18,30,8.10
2009,06,03,18,31,5.10
2009,06,03,18,32,2.00
2009,06,03,18,33,1.70
2009,06,03,18,34,1.50
2009,06,03,18,35,3.20
2009,06,03,18,36,2.10
2009,06,03,18,37,0.70
2009,06,03,18,38,0.60
2009,06,03,18,39,7.60
2009,06,03,18,40,3.10
2009,06,03,18,41,1.70
2009,06,03,18,42,2.50
2009,06,03,18,43,5.80
2009,06,03,18,44,1.30
2009,06,03,18,45,2.50
2009,06,03,18,46,3.50
2009,06,03,18,47,0.50
2009,06,03,18,48,0.10
2009,06,03,18,49,0.00
2009,06,03,18,50,1.40
2009,06,03,18,51,1.00
2009,06,03,18,52,4.70
2009,06,03,18,53,2.60
2009,06,03,18,54,0.10
2009,06,03,18,55,0.10
2009,06,03,18,56,0.00
2009,06,03,18,57,0.00
2009,06,03,18,58,0.00
2009,06,03,18,59,0.00
2009,06,03,19,00,0.00
2009,06,03,19,01,0.00
2009,06,03,19,02,0.20
2009,06,03,19,03,0.40
2009,06,03,19,04,1.10
2009,06,03,19,05,0.60
2009,06,03,19,06,0.10
2009,06,03,19,07,0.10
2009,06,03,19,08,0.50
2009,06,03,19,09,1.00
2009,06,03,19,10,1.00
2009,06,03,19,11,0.00
2009,06,03,19,12,0.10
2009,06,03,19,13,2.40
2009,06,03,19,14,3.60
2009,06,03,19,15,5.30
2009,06,03,19,16,3.00
2009,06,03,19,17,0.00
2009,06,03,19,18,0.80
2009,06,03,19,19,1.10
2009,06,03,19,20,0.00
2009,06,03,19,21,0.00
2009,06,03,19,22,0.00
2009,06,03,19,23,0.00
2009,06,03,19,24,0.00
2009,06,03,19,25,0.00
2009,06,03,19,26,0.00
2009,06,03,19,27,0.00
2009,06,03,19,28,0.00
2009,06,03,19,29,0.00
2009,06,03,19,30,0.00
